This demonstration page uses our WeatherBlox Daily Observations layout. Learn more.

41.55636, -103.73856

Hourly Observations for May 5, 2017

Temp ( °F °C ) Dew Point ( °F °C ) Humidity (%) Winds ( mph kmh ) Pressure ( in mb ) Visibility ( mi km ) Precip ( " mm )
12:53 am 00:53 Clear 47 8.3 37 2.8 69 69 ENE 3 6 30.06 1018 10 16.0934 0 0
1:53 am 01:53 Clear 45 7.2 36 2.2 71 71 E 7 11 30.04 1017 10 16.0934 0 0
2:53 am 02:53 Clear 43 6.1 35 1.7 74 74 NE 7 11 30.02 1017 10 16.0934 0 0
3:53 am 03:53 Clear 42 5.6 35 1.7 76 76 Calm 30.01 1016 10 16.0934 0 0
4:53 am 04:53 Clear 41 5 34 1.1 76 76 NNE 5 7 30.01 1016 10 16.0934 0 0
5:53 am 05:53 Sunny 37 2.8 33 0.6 86 86 NNW 6 9 30.03 1017 10 16.0934 0 0
6:53 am 06:53 Sunny 45 7.2 37 2.8 74 74 Calm 30.02 1017 10 16.0934 0 0
7:53 am 07:53 Sunny 53 11.7 38 3.3 57 57 Calm 30.03 1017 10 16.0934 0 0
8:53 am 08:53 Sunny 59 15 38 3.3 46 46 WNW 5 7 30.02 1017 10 16.0934 0 0
9:53 am 09:53 Sunny 64 17.8 41 5 43 43 NW 5 7 30.01 1016 10 16.0934 0 0
10:53 am 10:53 Sunny 70 21.1 43 6.1 38 38 Calm 29.99 1016 10 16.0934 0 0
11:53 am 11:53 Sunny 74 23.3 39 3.9 28 28 SSW 5 7 29.97 1015 10 16.0934 0 0
12:53 pm 12:53 Sunny 75 23.9 37 2.8 25 25 Calm 29.95 1014 10 16.0934 0 0
1:53 pm 13:53 Sunny 78 25.6 37 2.8 23 23 VRB 3 6 29.92 1013 10 16.0934 0 0
2:53 pm 14:53 Sunny 79 26.1 37 2.8 22 22 Calm 29.9 1013 10 16.0934 0 0
3:53 pm 15:53 Sunny 80 26.7 38 3.3 22 22 SSW 3 6 29.88 1012 10 16.0934 0 0
4:53 pm 16:53 Sunny 81 27.2 39 3.9 22 22 NW 6 9 29.86 1011 10 16.0934 0 0
5:53 pm 17:53 Sunny 81 27.2 37 2.8 21 21 Calm 29.86 1011 10 16.0934 0 0
6:53 pm 18:53 Sunny 77 25 42 5.6 29 29 SE 5 7 29.84 1011 10 16.0934 0 0
7:53 pm 19:53 Sunny 69 20.6 42 5.6 38 38 E 8 13 29.84 1011 10 16.0934 0 0
8:53 pm 20:53 Clear 59 15 41 5 51 51 E 8 13 29.86 1011 10 16.0934 0 0
9:53 pm 21:53 Clear 55 12.8 40 4.4 57 57 E 7 11 29.86 1011 10 16.0934 0 0
10:53 pm 22:53 Clear 55 12.8 38 3.3 53 53 ESE 6 9 29.86 1011 10 16.0934 0 0
11:53 pm 23:53 Clear 52 11.1 39 3.9 61 61 E 7 11 29.86 1011 10 16.0934 0 0

Powered by AerisWeather